Theta_e
353 353 353 352 352 352 351 351 351 350 349 350 350 350 351 351 351 351 351 351 350 350 351 352 350 350 351 352 353 355 357 358 357 358 358 358 357 354 352 352 348 342
353 353 353 353 352 352 352 351 351 350 349 349 349 349 350 351 351 351 350 351 351 351 351 352 352 351 352 352 353 354 357 358 358 359 358 358 358 356 354 353 350 345
353 353 353 353 352 352 352 351 351 350 350 349 348 348 348 349 350 351 351 351 351 351 351 353 353 353 352 353 353 354 355 357 358 358 359 359 358 358 357 356 352 347
354 353 353 353 352 351 351 352 352 351 351 350 349 349 349 349 350 351 351 351 351 352 351 353 353 353 354 353 353 354 354 356 358 359 359 358 358 358 358 358 354 349
354 353 353 352 352 352 351 352 352 351 351 351 351 350 351 350 351 351 352 352 352 352 352 353 353 353 354 354 354 354 354 354 356 359 360 358 357 358 358 359 355 352
354 353 353 352 352 351 351 351 351 352 352 351 351 351 351 351 351 352 353 352 352 353 353 353 354 353 354 354 354 355 354 354 355 358 360 359 357 358 358 358 357 355
353 353 353 353 352 352 352 350 351 352 352 352 352 352 352 352 352 352 352 353 352 353 353 353 353 353 353 354 355 355 355 355 355 357 359 359 358 358 357 358 358 356
353 353 353 353 352 352 352 351 351 351 352 353 353 352 352 352 352 352 352 353 353 353 353 353 353 353 353 354 355 355 355 356 356 357 359 359 358 358 357 357 357 356
353 353 353 353 352 352 351 351 351 351 351 353 353 353 353 353 353 353 353 354 354 354 353 353 353 353 353 354 354 355 355 356 357 357 358 359 359 358 357 357 357 356
353 353 352 353 352 352 352 351 352 352 352 352 352 353 354 354 354 354 354 354 355 354 354 354 354 353 353 354 355 355 355 356 357 357 357 358 358 358 357 357 357 356
353 353 353 353 352 352 352 352 351 352 352 352 352 353 354 354 354 354 354 354 354 354 355 354 354 354 354 354 355 355 356 356 356 357 357 357 358 358 357 356 356 356
353 353 352 353 353 352 352 352 352 352 352 352 352 353 353 353 354 355 355 354 354 354 354 354 354 355 354 354 356 356 356 356 356 357 357 357 357 357 357 357 355 356
354 354 353 353 353 353 353 353 352 352 352 352 352 352 353 353 354 354 355 354 354 354 355 355 354 355 355 355 356 356 357 357 357 357 357 357 357 357 356 356 356 356
355 355 354 353 354 353 353 353 353 353 352 352 352 352 353 353 353 354 355 355 355 355 355 355 355 356 356 356 356 356 356 357 357 357 357 357 356 356 356 356 356 356
356 356 355 355 355 354 354 354 353 353 353 352 353 352 352 352 353 353 354 355 355 355 355 356 356 355 355 355 355 356 356 356 356 357 357 357 357 357 357 357 356 356
356 356 356 356 355 355 355 354 353 353 353 353 353 353 353 352 352 353 354 355 355 355 355 356 356 356 355 355 355 355 356 356 357 357 357 357 357 357 357 357 356 357
358 357 357 357 356 356 356 355 354 354 353 354 353 353 353 353 353 352 352 353 354 355 355 355 356 355 355 355 356 356 356 356 356 357 357 357 357 357 358 357 357 356
358 358 358 357 357 357 356 356 355 355 354 354 354 353 354 353 353 353 353 352 353 353 355 355 355 355 355 356 356 356 356 357 357 357 357 357 357 358 358 357 357 357
359 359 359 358 358 358 357 357 356 355 355 354 354 354 354 353 353 353 353 352 352 353 353 354 355 355 355 355 355 356 356 357 357 357 357 358 358 358 358 358 358 358
360 360 359 359 359 358 358 357 356 356 355 355 355 354 354 354 354 353 353 353 353 353 353 353 353 354 355 355 355 355 356 356 356 357 357 357 357 357 357 358 358 357
361 361 360 360 359 359 359 358 357 357 356 355 355 355 354 354 354 354 353 353 353 353 352 353 353 353 354 354 355 355 355 356 356 356 356 357 357 357 357 357 357 357
361 361 361 361 360 360 359 359 358 358 357 356 355 355 355 354 354 354 353 353 354 353 353 353 353 353 353 354 354 355 355 355 356 356 356 357 357 357 357 357 357 357
362 362 362 361 361 361 360 360 359 358 358 357 357 356 355 355 354 354 353 354 354 353 353 353 353 353 354 354 354 355 356 356 356 356 356 356 356 356 357 356 357 357
363 363 363 362 362 361 361 361 360 359 359 358 357 357 356 355 355 354 354 353 353 354 353 354 354 353 354 353 354 355 355 356 356 356 356 356 356 356 357 357 357 357
364 364 364 364 363 362 362 361 360 360 360 359 358 358 357 356 355 355 354 354 353 354 353 354 354 354 354 354 354 354 355 356 356 356 356 355 355 356 356 356 356 357
364 365 364 364 364 363 362 362 361 361 360 360 359 359 357 357 356 355 355 355 353 354 354 353 354 354 354 354 354 354 355 355 356 356 355 355 356 356 356 357 357 357
Wind_Speed
39 37 36 35 36 36 35 35 34 34 34 35 35 35 34 32 30 30 29 28 26 25 24 22 22 22 22 21 20 20 20 20 19 19 19 19 20 21 21 20 20 20
40 38 36 35 34 34 34 34 34 34 35 36 36 36 35 32 31 30 30 29 28 27 26 24 23 22 22 22 22 21 21 21 21 20 21 21 21 22 22 22 21 21
40 39 38 36 35 35 34 34 34 34 35 35 35 35 34 33 32 30 30 30 29 28 27 26 25 24 23 23 23 22 22 23 22 21 21 22 22 22 23 22 22 22
40 40 39 38 37 36 34 33 34 35 35 35 35 35 34 33 32 31 31 30 30 30 29 28 27 25 25 24 24 24 24 24 24 23 22 23 24 24 24 23 23 23
41 40 39 39 37 36 34 33 34 35 35 35 35 35 34 33 33 32 31 31 31 31 30 29 28 27 27 26 27 27 26 26 26 25 25 25 25 25 25 24 24 24
40 40 39 39 37 35 34 35 36 35 35 36 35 34 34 34 34 33 32 31 31 31 31 31 30 29 29 28 29 29 28 28 28 28 28 28 27 27 27 27 26 25
39 39 39 38 37 36 36 36 36 35 35 35 34 34 34 35 35 34 34 32 32 32 32 32 32 31 30 30 30 31 31 30 29 29 30 31 30 29 29 29 29 28
39 39 39 38 37 37 37 37 35 35 34 33 33 34 34 35 36 35 35 34 33 33 33 33 33 32 32 32 32 32 32 32 31 31 32 32 32 32 32 31 31 31
39 38 38 38 38 38 37 37 36 35 34 33 33 33 33 35 36 35 35 35 35 35 35 35 34 34 34 33 34 33 33 33 33 32 33 33 33 34 34 33 32 33
38 37 38 38 38 38 38 37 36 35 34 34 34 33 33 34 35 35 35 35 35 36 36 37 36 35 35 35 35 34 34 34 34 34 35 35 35 35 34 34 34 34
37 37 37 38 38 38 38 38 37 36 35 35 35 34 34 34 34 34 35 35 37 38 38 38 38 37 36 36 36 35 35 35 34 35 36 36 36 36 35 34 34 36
38 38 38 38 38 38 38 38 37 37 36 36 36 36 35 35 34 34 35 37 38 39 39 39 38 37 37 37 36 35 35 35 35 36 36 37 37 37 36 36 35 36
39 39 39 39 39 39 39 38 38 38 38 37 37 37 37 36 36 36 36 38 39 39 39 39 38 37 37 37 36 36 36 36 36 37 37 37 38 37 36 36 36 37
39 39 39 39 38 38 38 37 38 38 38 38 37 37 38 38 37 37 38 38 39 39 39 38 36 36 37 37 37 37 37 38 38 37 37 37 38 38 36 35 36 37
38 38 38 38 37 37 37 37 37 37 37 37 37 37 38 38 38 38 37 38 39 39 39 37 36 37 39 39 39 39 39 39 38 38 38 37 37 36 35 35 36 37
37 36 36 37 37 38 38 38 37 36 36 37 38 38 38 38 37 37 37 37 39 39 39 37 37 39 41 41 42 41 40 39 38 38 38 37 36 35 34 35 36 38
35 35 35 36 37 38 38 38 37 36 37 37 37 38 38 37 37 37 38 38 39 39 39 38 39 41 42 42 43 42 41 39 38 38 37 36 36 35 35 36 36 37
35 35 35 36 37 37 38 38 38 37 37 37 37 38 37 37 37 38 38 39 38 38 38 39 40 42 42 42 43 43 42 41 39 37 35 35 36 36 37 37 37 37
36 35 36 36 37 38 38 37 37 38 38 38 38 37 37 38 38 38 38 39 38 38 39 39 40 41 42 42 42 43 42 41 40 37 36 36 36 37 37 38 38 38
36 36 36 37 37 38 37 37 38 38 39 39 38 37 38 38 38 38 38 39 39 40 40 39 40 41 41 41 42 42 41 41 41 40 38 37 37 37 37 38 39 38
36 36 36 37 37 37 37 37 38 38 38 38 37 38 39 39 38 38 39 39 40 40 39 39 41 41 40 40 41 42 41 40 40 40 40 39 39 38 38 39 39 38
36 36 36 37 37 37 36 37 37 38 38 38 38 38 39 39 39 39 39 39 39 39 39 40 42 40 39 39 40 40 39 38 39 41 41 41 41 40 40 40 40 39
37 37 37 37 37 36 36 37 38 39 39 39 38 37 37 38 39 39 38 39 38 38 39 41 41 39 38 39 39 37 36 37 39 40 41 41 42 42 41 41 41 40
38 38 38 37 36 36 37 38 38 39 40 39 39 38 38 38 38 38 38 38 38 38 40 41 40 38 38 38 38 36 35 37 38 39 40 41 41 42 42 41 42 41
39 39 39 38 37 38 39 39 39 40 40 39 38 38 38 37 37 36 37 37 37 38 39 39 39 38 37 38 38 36 35 36 37 38 39 39 39 40 40 41 41 42
39 39 39 39 38 39 40 40 40 39 38 37 36 36 36 35 35 35 35 35 36 36 37 38 38 37 37 37 37 36 36 36 36 38 38 38 38 38 38 39 40 41
Wind_Direction
211 211 211 212 213 215 216 216 217 217 219 220 221 223 225 225 224 222 225 228 231 234 237 237 234 232 231 234 238 240 240 242 244 242 240 242 242 241 243 244 244 241
210 211 212 214 215 216 217 218 218 219 220 221 223 225 226 227 226 225 227 229 232 234 236 237 236 233 232 234 237 239 239 240 242 242 241 242 243 243 246 247 245 243
209 210 211 213 215 216 217 218 219 221 222 223 224 225 227 228 228 228 229 230 233 235 236 238 237 235 234 234 237 239 239 239 239 240 241 242 242 244 248 251 249 245
209 210 211 213 215 216 216 216 218 221 222 224 225 225 227 229 229 229 230 231 233 234 236 237 238 236 235 235 237 239 240 241 240 240 242 242 242 243 247 250 251 247
209 210 211 213 215 216 216 216 218 220 222 224 225 225 227 228 229 229 230 231 233 234 235 236 237 237 236 236 237 239 241 242 242 241 242 243 242 243 244 246 248 248
209 210 212 213 214 215 216 218 220 220 221 223 224 225 226 227 229 230 231 232 233 233 234 234 236 236 237 237 237 238 240 242 242 241 241 244 243 243 243 243 245 247
208 210 211 213 213 214 216 219 220 220 222 223 223 225 226 227 229 230 232 233 233 234 234 234 235 235 236 236 236 238 239 240 242 240 241 243 244 244 243 243 243 245
208 209 210 212 213 214 217 218 220 221 222 222 223 225 226 228 229 230 232 233 233 234 235 235 236 236 235 235 235 236 237 238 239 239 240 241 242 244 244 243 242 244
208 209 210 211 212 214 216 217 219 221 221 222 223 225 226 228 230 230 231 232 232 234 235 235 236 236 235 234 234 235 235 236 237 238 239 239 240 242 243 242 241 242
208 209 209 211 212 213 215 217 219 220 221 222 224 224 226 228 230 231 231 232 232 233 234 235 235 235 235 234 235 235 235 236 237 237 238 239 240 241 242 241 240 241
208 209 210 211 212 214 216 217 218 219 220 222 223 224 226 228 228 229 230 231 233 233 234 234 234 234 234 234 234 235 236 237 238 238 239 239 240 241 242 241 240 241
207 209 210 211 213 214 216 217 217 218 220 221 222 223 225 227 227 228 229 231 233 234 235 235 234 233 234 234 234 234 235 237 238 239 240 240 240 241 241 242 242 243
207 208 210 211 213 215 216 217 217 218 219 220 222 223 224 226 227 228 229 231 234 235 235 236 235 234 234 235 234 235 235 236 237 238 239 240 241 241 241 242 243 245
207 209 210 212 214 215 216 217 218 219 219 220 222 222 224 225 226 228 230 232 234 235 236 236 235 234 235 235 235 235 236 237 237 238 238 240 241 242 242 242 244 245
208 209 210 212 213 215 216 218 219 219 220 221 222 223 224 226 226 228 230 232 235 236 237 236 234 235 235 235 235 235 235 236 237 237 238 239 241 242 242 243 244 246
208 208 210 211 212 214 216 217 219 220 220 221 222 223 225 226 227 227 229 231 234 236 237 236 235 236 237 236 236 235 235 236 236 237 238 239 240 241 242 243 244 246
207 208 209 210 212 213 215 216 217 219 220 222 223 224 225 226 227 227 228 230 233 235 236 236 236 238 238 238 238 237 236 235 236 237 238 238 240 241 242 244 245 246
206 207 208 210 212 213 214 215 216 217 219 221 222 223 225 226 227 228 229 231 232 234 236 236 237 239 240 240 240 240 238 237 236 237 238 238 240 241 242 244 245 247
206 206 208 210 211 213 214 215 215 216 218 220 221 223 224 226 227 228 230 231 232 234 236 237 238 240 241 241 242 242 241 239 238 238 239 240 241 241 243 244 245 247
206 206 208 210 212 213 213 214 215 216 218 219 220 222 223 225 226 227 229 231 232 234 236 238 239 240 241 242 242 243 243 241 239 239 240 242 243 243 244 245 246 246
205 206 208 210 212 212 212 214 215 217 218 218 219 221 223 225 226 227 229 230 232 233 236 238 240 241 241 242 243 243 243 242 241 240 241 243 245 245 245 246 247 247
205 206 208 210 211 211 211 213 215 217 218 218 219 221 223 225 226 227 228 230 231 233 234 238 241 241 241 242 244 244 243 242 241 240 241 243 245 246 247 248 249 248
206 206 208 210 210 209 211 213 215 217 219 218 218 219 222 224 226 228 229 230 231 231 233 237 240 241 241 242 244 243 241 240 240 239 240 242 245 247 248 249 250 250
207 208 209 210 210 210 212 214 215 217 218 218 217 218 221 223 225 228 229 230 231 231 232 236 239 240 240 241 242 242 240 240 239 238 239 241 244 247 249 250 251 252
209 209 210 211 210 212 213 214 215 217 218 218 217 218 221 223 224 226 229 230 231 232 234 236 238 239 240 240 241 240 239 239 239 237 238 240 244 247 249 251 252 253
211 211 211 212 212 214 215 216 216 217 218 218 218 219 221 223 223 225 228 231 232 233 235 236 237 238 239 240 241 239 238 238 237 235 237 239 242 245 248 250 252 253